Location: Litvinovka
(48.6667°N, 34.3500°E)
Time: 11:41:11
(UTC+00:00)

Cosmos 1634 Rocket - Pass Details

Date: 18 September 2020
Orbit: 961 x 991 km, 82.9° (Epoch: 30 October)

Event Time Altitude Azimuth Distance (km) Brightness Sun altitude
Exits shadow 17:49:45 34° 137° (SE) 1,544 4.5 -20.1°
Maximum altitude 17:51:53 46° 90° (E) 1,273 4.2 -20.4°
Drops below altitude 10° 17:57:45 10° 19° (NNE) 2,716 6.4 -21.2°
Sets 18:00:21 0° 14° (NNE) 3,671 7.2 -21.6°
